Terminal Aerodrome Forecast
Issued by NWS

Home | Current Version | Previous Version | Text Only | Print | Product List | Glossary On
Versions: 1 2 3 4 5 6 7 8 9 10 11 12 13 14 15
000
FTUS44 KCRP 260500
TAFLRD
TAF
KLRD 260526Z 2606/2706 14011KT P6SM FEW030 SCT250
     FM261700 16015G20KT P6SM SCT050
     FM270100 14017G22KT P6SM FEW070 SCT250=

USA.gov is the U.S. government's official web portal to all federal, state and local government web resources and services.